Cloud_Cover
100 100 100 100 100 100 100 100 100 100 100 100 100 100 100 100 100 100 100 100 100 100 100 99 57 5 2 0 0 0 0 0 0 0 0 0 0 0 0 0 0 0 0
100 100 100 100 100 100 100 100 100 100 100 100 100 100 100 98 91 100 100 98 28 56 88 7 4 0 0 0 0 0 0 4 5 5 1 0 4 2 0 0 0 0 0
100 100 100 100 100 100 100 100 100 99 100 100 100 100 100 100 91 78 86 100 100 66 5 0 0 0 0 0 3 0 3 5 5 5 5 5 5 0 1 4 4 1 2
100 100 100 100 100 100 100 100 100 87 98 98 100 100 98 93 88 100 100 42 5 1 0 0 0 0 1 5 5 4 5 5 5 5 15 55 6 5 5 5 5 5 2
100 100 100 100 100 100 100 78 90 95 99 100 100 94 65 100 75 6 3 0 0 0 0 3 4 5 5 5 5 99 44 17 5 12 62 98 66 84 54 62 65 92 13
5 35 51 49 74 76 53 56 100 100 100 100 80 20 6 4 0 0 0 4 2 5 5 5 5 5 5 5 34 68 60 72 13 100 100 100 100 97 100 100 100 100 100
5 5 5 5 57 74 74 100 98 84 19 64 25 3 0 0 0 0 3 5 5 5 5 5 5 5 5 5 4 4 4 5 17 95 82 86 100 73 74 89 90 100 93
4 4 5 5 5 5 20 9 5 4 2 0 0 0 0 0 0 3 5 5 5 5 5 5 5 5 3 5 5 5 5 5 5 5 5 5 38 49 70 43 92 100 100
1 4 3 4 1 0 0 0 0 0 0 0 0 0 4 5 5 5 5 5 1 0 0 5 5 5 5 34 100 99 75 95 73 42 68 97 100 100 100 100 100 100 100
4 3 0 0 0 0 0 0 3 5 5 5 1 1 0 0 0 4 5 5 5 5 5 5 61 90 89 100 100 100 100 47 15 54 68 88 68 43 86 80 82 98 100
0 0 0 0 0 0 1 5 5 5 5 0 0 0 0 0 0 5 5 31 96 100 94 100 100 85 100 86 100 91 83 100 99 100 100 100 97 100 100 98 73 84 100
0 0 0 0 0 4 5 5 4 1 0 0 1 5 5 5 5 5 97 100 100 100 100 100 100 100 100 100 100 96 84 99 73 28 36 97 100 100 98 77 80 91 100
0 0 0 0 5 1 0 0 0 0 0 5 5 5 5 5 16 10 10 34 93 100 100 100 100 100 93 93 95 74 99 6 5 20 44 100 100 100 100 98 91 87 100
0 0 0 0 0 0 0 0 0 4 5 5 5 5 5 5 84 25 52 84 99 100 100 92 78 87 81 82 12 72 86 46 34 95 100 100 100 100 100 100 100 100 100
5 4 0 0 2 5 5 0 3 5 28 78 59 68 61 30 83 100 100 100 100 100 100 98 71 88 86 98 88 99 100 100 100 100 100 100 100 100 100 100 100 99 100
5 4 1 5 5 5 4 0 1 5 5 5 6 59 63 86 100 100 100 100 100 100 92 63 62 79 99 100 100 100 100 100 97 100 100 100 100 100 100 100 100 100 100
5 5 1 0 4 5 5 5 5 4 5 5 5 6 75 100 100 100 100 100 72 52 86 89 91 93 100 100 100 100 100 100 100 100 100 100 100 100 100 100 100 100 100
5 5 0 5 5 5 5 5 5 5 5 5 5 28 30 65 97 100 98 75 68 97 76 77 90 73 81 98 100 100 100 88 96 89 100 99 100 100 100 100 100 100 100
5 5 4 5 5 5 5 5 5 5 5 12 42 46 5 30 93 66 80 75 94 100 100 100 93 86 94 100 100 98 98 96 97 95 86 100 100 100 100 100 100 100 100
5 4 3 5 5 5 5 5 5 5 10 69 100 100 99 99 70 59 52 76 100 100 98 96 93 100 100 100 99 99 100 97 100 99 90 100 100 100 100 100 100 100 100
5 5 5 5 5 5 5 5 5 5 5 66 75 85 100 91 80 86 99 89 100 100 100 100 100 100 100 100 100 100 100 100 100 100 100 100 100 100 100 100 100 100 100
5 5 5 5 5 5 5 5 5 5 57 100 100 100 100 100 99 94 97 100 100 100 100 100 100 100 100 100 100 100 100 100 100 100 100 100 100 100 100 100 100 100 100
5 5 5 5 5 5 5 5 33 77 100 100 100 100 100 100 100 100 100 100 100 100 100 100 100 100 100 100 100 100 100 100 100 100 100 100 100 100 100 100 100 96 100
5 5 5 5 5 5 5 54 100 100 100 100 98 100 96 79 100 95 100 100 100 100 100 100 100 100 100 100 100 100 100 100 100 100 100 100 100 100 100 100 100 100 100
5 5 5 5 5 17 28 100 100 100 100 100 90 97 77 82 89 100 100 100 100 100 100 100 100 100 100 100 100 100 100 100 100 100 100 100 100 100 100 100 100 100 97
5 5 5 5 5 5 42 100 100 100 100 100 98 83 94 99 97 100 100 100 100 100 100 100 100 100 100 100 100 100 100 100 100 100 100 100 100 100 100 100 100 100 100